GFSNGP_850_dewp_054.txt.gz
Dewpoint
-5 -4 -3 -1 -2 -3 -3 -2 3 1 -4 -7 -8 -4 -5 -5 -3 -1 2 3 4 4 3 2 2 2 1 -1 -3 -5 -7 -8 -10 -10 -9 -8 -8 -8 -7 -5 -5 -5 -6 -5
3 0 -1 0 -2 -3 -3 -3 -5 -4 -4 -8 -8 -8 -7 -7 -4 -3 1 3 3 3 2 2 2 1 -2 -2 -5 -7 -8 -10 -10 -11 -11 -11 -11 -10 -8 -7 -7 -6 -5 -5
7 1 0 4 1 -2 -4 -5 -4 -2 -3 -6 -6 -5 -5 -5 -6 -2 -0 2 2 2 2 1 0 -1 -3 -5 -7 -8 -9 -11 -11 -12 -11 -10 -9 -8 -8 -7 -6 -5 -5 -5
9 4 7 -3 -6 -7 -6 -7 -8 -8 -7 -8 -5 -4 -4 -4 -3 -1 -0 1 2 2 1 -0 -2 -4 -6 -7 -9 -9 -11 -11 -11 -10 -10 -9 -8 -7 -6 -6 -6 -6 -5 -6
9 5 -1 -3 -7 -7 -6 -5 -6 -6 -6 -5 -1 -2 -3 -2 -1 -0 1 1 1 1 -0 -2 -4 -7 -7 -8 -8 -11 -10 -9 -11 -10 -9 -7 -7 -6 -6 -6 -6 -6 -6 -6
9 10 8 -1 -4 -6 -6 0 -6 -7 -4 -4 -2 3 2 -0 -0 -0 1 1 1 -0 -2 -4 -7 -7 -8 -7 -8 -9 -11 -11 -13 -10 -7 -7 -6 -6 -6 -7 -7 -6 -6 -6
8 9 7 -2 -3 -4 1 4 -3 -3 -6 -4 -1 3 2 1 1 1 1 0 -0 -2 -6 -7 -7 -7 -6 -6 -10 -12 -11 -11 -12 -8 -7 -7 -7 -7 -7 -6 -6 -5 -6 -7
10 9 9 -3 -4 0 2 -1 -1 -2 -1 2 4 3 2 2 2 1 -1 -4 -6 -7 -7 -6 -5 -5 -7 -9 -9 -11 -11 -12 -10 -7 -7 -8 -8 -6 -6 -6 -6 -6 -7 -8
7 7 0 -5 -2 1 -1 -1 -1 1 1 1 1 3 2 2 -0 -4 -7 -7 -7 -5 -4 -4 -4 -6 -9 -13 -13 -10 -12 -8 -7 -7 -6 -8 -9 -10 -6 -6 -6 -8 -9 -9
3 -3 -3 -4 -2 -0 1 1 2 2 2 2 2 2 2 -1 -5 -7 -6 -4 -3 -3 -3 -5 -6 -9 -10 -9 -8 -8 -8 -8 -7 -7 -7 -7 -7 -8 -7 -6 -6 -6 -7 -7
-0 -2 -3 2 3 3 3 3 3 3 3 3 3 2 -2 -5 -5 -4 -3 -3 -2 -3 -4 -7 -9 -10 -11 -9 -8 -8 -8 -7 -7 -7 -6 -6 -6 -7 -7 -7 -7 -6 -6 -7
6 3 3 4 4 3 3 3 2 1 -1 -2 -2 -4 -5 -4 -4 -3 -2 -3 -5 -6 -7 -10 -9 -10 -10 -9 -9 -8 -8 -9 -9 -8 -7 -7 -6 -7 -7 -7 -8 -8 -8 -8
3 3 4 3 2 2 1 1 -0 -1 -2 -2 -2 -2 -2 -2 -5 -6 -2 -3 -5 -6 -9 -10 -9 -9 -9 -9 -8 -6 -6 -6 -6 -6 -6 -7 -7 -8 -8 -8 -8 -8 -8 -8
3 3 3 3 -0 -1 -1 -1 -2 -1 -1 -2 -2 -2 -2 -2 -3 -4 -6 -8 -10 -10 -9 -9 -9 -9 -9 -8 -7 -6 -6 -7 -6 -6 -6 -7 -7 -7 -8 -8 -9 -9 -10 -10
2 2 1 0 1 1 1 0 -1 -2 -2 -2 -4 -5 -6 -7 -9 -10 -10 -10 -9 -9 -9 -8 -9 -9 -8 -8 -9 -9 -8 -6 -5 -6 -6 -7 -7 -7 -8 -7 -7 -8 -8 -9
-0 -0 0 1 0 0 -1 -2 -2 -3 -4 -4 -4 -6 -10 -11 -15 -16 -9 -9 -11 -12 -12 -12 -13 -13 -12 -9 -8 -7 -6 -5 -5 -6 -6 -6 -7 -7 -7 -7 -7 -7 -7 -8
0 0 0 0 -0 -2 -3 -3 -4 -5 -6 -11 -16 -16 -16 -16 -15 -15 -16 -17 -19 -22 -23 -23 -17 -8 -5 -5 -5 -5 -4 -5 -5 -5 -5 -6 -7 -7 -7 -8 -8 -8 -9 -9
1 0 -0 -1 -3 -4 -6 -6 -9 -15 -16 -14 -14 -14 -15 -17 -18 -20 -23 -25 -27 -28 -18 -7 -6 -7 -9 -10 -11 -9 -7 -7 -5 -6 -6 -7 -8 -9 -9 -9 -9 -9 -9 -9
-0 -2 -3 -5 -7 -6 -7 -12 -14 -14 -13 -13 -15 -17 -19 -20 -23 -27 -29 -30 -22 -11 -8 -9 -9 -10 -14 -10 -9 -8 -9 -8 -7 -6 -7 -8 -8 -8 -9 -9 -9 -8 -8 -8
-5 -6 -6 -6 -11 -15 -15 -10 -11 -12 -14 -16 -18 -19 -20 -25 -30 -31 -27 -14 -10 -9 -9 -9 -12 -15 -11 -10 -10 -9 -10 -11 -7 -7 -7 -8 -8 -8 -8 -8 -8 -8 -8 -8
-5 -12 -14 -15 -14 -12 -11 -11 -13 -15 -17 -18 -20 -23 -28 -31 -30 -24 -14 -11 -9 -11 -13 -15 -12 -11 -13 -14 -14 -12 -10 -10 -8 -8 -8 -9 -9 -10 -10 -10 -10 -10 -10 -10
-10 -13 -13 -11 -11 -11 -12 -14 -15 -17 -19 -22 -26 -29 -31 -29 -22 -14 -12 -11 -13 -14 -13 -13 -13 -14 -15 -14 -11 -10 -9 -9 -9 -10 -10 -10 -11 -11 -12 -12 -12 -12 -12 -12
-11 -10 -9 -9 -10 -12 -14 -15 -17 -19 -21 -25 -27 -27 -25 -21 -14 -13 -12 -14 -13 -13 -14 -13 -15 -15 -15 -14 -13 -12 -12 -12 -12 -12 -13 -13 -13 -13 -14 -14 -14 -14 -13 -13
-7 -8 -10 -11 -13 -14 -13 -16 -20 -17 -20 -22 -17 -16 -19 -16 -16 -14 -16 -14 -15 -16 -14 -15 -17 -16 -16 -15 -15 -15 -15 -15 -14 -14 -14 -15 -15 -15 -15 -15 -15 -14 -14 -14
-8 -10 -11 -11 -12 -13 -15 -19 -19 -15 -18 -15 -15 -17 -15 -14 -16 -16 -14 -14 -15 -15 -15 -16 -17 -17 -17 -16 -16 -16 -16 -16 -16 -16 -16 -16 -16 -16 -16 -17 -19 -20 -20 -21
-8 -9 -11 -13 -15 -17 -21 -25 -23 -16 -18 -14 -19 -16 -14 -14 -14 -15 -15 -16 -16 -16 -16 -16 -17 -18 -18 -18 -17 -17 -17 -17 -17 -17 -17 -17 -17 -17 -18 -21 -21 -21 -21 -21
-10 -12 -12 -12 -14 -20 -25 -25 -21 -22 -14 -16 -19 -15 -14 -15 -15 -16 -16 -16 -17 -17 -18 -18 -18 -19 -19 -19 -19 -19 -19 -18 -18 -19 -18 -18 -19 -20 -21 -22 -22 -22 -22 -21

GFSNGP_850_dewp_057.txt.gz
Dewpoint
-2 -1 -1 -1 -0 -0 0 1 3 1 1 -1 -5 -3 -5 -4 -4 1 3 3 4 5 5 5 5 4 3 2 1 0 -5 -8 -7 -8 -10 -10 -10 -11 -11 -10 -9 -7 -6 -6
3 2 1 0 -0 -1 -1 -2 -2 -2 -2 -5 -5 -7 -6 -5 -3 -1 3 4 4 4 4 3 3 3 2 1 -0 -4 -7 -8 -8 -9 -12 -16 -16 -15 -19 -14 -9 -8 -6 -6
5 0 0 1 -0 -1 -1 -2 -3 -1 -2 -4 -4 -4 -5 -5 -5 -2 3 3 3 3 3 3 2 2 1 -2 -3 -6 -7 -9 -11 -12 -13 -11 -11 -18 -12 -8 -7 -6 -5 -5
4 2 1 0 -3 -6 -4 -5 -6 -5 -3 -1 -2 -2 -3 -3 -2 -1 1 2 2 2 2 2 1 0 -2 -4 -6 -7 -9 -11 -7 -7 -6 -11 -11 -10 -8 -7 -6 -6 -6 -5
3 4 2 -1 -5 -6 -5 -3 -5 -4 -1 -2 -3 -1 -0 -0 0 0 1 2 2 2 1 -0 -2 -4 -6 -8 -9 -11 -9 -6 -4 -7 -11 -12 -12 -8 -7 -7 -8 -9 -10 -6
5 5 2 2 -4 -6 -6 -0 -1 -3 -3 -2 -3 3 3 -0 0 1 1 1 1 -1 -2 -3 -6 -7 -8 -8 -8 -7 -7 -2 -8 -9 -13 -9 -7 -7 -7 -7 -7 -6 -6 -6
3 4 4 3 -3 -5 -1 1 -2 -1 2 0 4 3 2 1 1 1 1 -0 -1 -3 -5 -6 -7 -7 -7 -7 -7 -3 -6 -6 -8 -9 -12 -10 -9 -8 -7 -6 -6 -6 -6 -6
5 7 5 1 -4 -1 2 -0 -0 1 3 3 3 2 2 1 -0 -1 -3 -4 -5 -6 -7 -6 -6 -6 -5 -3 -5 -8 -8 -9 -10 -12 -9 -7 -8 -11 -12 -11 -6 -6 -6 -6
5 5 3 -0 1 -1 -1 1 1 1 1 2 3 2 2 -1 -3 -5 -5 -6 -6 -6 -6 -5 -5 -4 -1 -9 -9 -11 -10 -12 -12 -10 -9 -8 -8 -10 -10 -10 -10 -7 -6 -7
3 1 -1 2 1 1 1 2 2 2 2 2 2 1 -2 -4 -6 -6 -6 -5 -5 -5 -4 -2 -2 -8 -8 -10 -11 -10 -10 -11 -10 -9 -8 -8 -10 -8 -7 -9 -11 -9 -8 -7
2 3 4 4 3 3 2 3 3 2 3 3 1 -4 -5 -6 -6 -5 -5 -4 -3 -2 -4 -7 -7 -8 -10 -10 -10 -9 -9 -8 -8 -9 -10 -12 -9 -8 -8 -9 -9 -8 -8 -8
3 4 4 4 3 3 2 1 1 1 -0 -2 -1 -4 -5 -5 -4 -3 -2 -5 -6 -5 -6 -10 -10 -10 -10 -10 -10 -9 -9 -8 -8 -8 -9 -8 -8 -9 -9 -10 -10 -9 -9 -9
4 4 3 2 2 2 1 -0 -1 -1 -3 -3 -4 -4 -3 -3 -7 -7 -5 -5 -6 -8 -9 -10 -10 -10 -9 -9 -8 -8 -8 -7 -6 -6 -5 -7 -7 -7 -8 -10 -8 -8 -8 -9
4 3 1 1 -1 -1 -1 -1 -1 -1 -1 -2 -3 -4 -4 -6 -6 -5 -8 -10 -10 -10 -10 -9 -8 -8 -8 -8 -8 -8 -7 -7 -7 -8 -8 -7 -6 -7 -7 -6 -6 -8 -9 -8
3 3 1 -0 -0 -0 -0 -1 -2 -3 -3 -3 -5 -7 -8 -9 -10 -10 -11 -11 -12 -13 -15 -18 -19 -20 -19 -17 -14 -10 -7 -6 -5 -5 -5 -5 -4 -5 -6 -6 -6 -8 -8 -9
1 0 1 1 1 -1 -2 -3 -3 -3 -4 -5 -5 -9 -12 -15 -16 -13 -14 -17 -20 -24 -27 -24 -18 -11 -8 -8 -8 -10 -13 -13 -11 -10 -7 -7 -5 -5 -5 -6 -7 -7 -8 -8
1 1 0 -0 -1 -2 -3 -3 -4 -4 -5 -14 -16 -15 -15 -16 -18 -19 -21 -25 -29 -24 -16 -10 -8 -8 -11 -15 -17 -19 -10 -10 -9 -9 -10 -7 -7 -6 -6 -7 -8 -9 -10 -9
0 0 -0 -2 -3 -4 -4 -5 -6 -14 -16 -13 -13 -15 -18 -18 -19 -23 -27 -29 -24 -19 -13 -11 -12 -12 -14 -19 -15 -12 -11 -10 -10 -10 -10 -12 -7 -6 -8 -8 -9 -9 -10 -9
0 -0 -2 -4 -4 -5 -9 -14 -15 -14 -12 -15 -17 -18 -19 -22 -26 -29 -30 -25 -23 -16 -14 -11 -13 -20 -15 -14 -18 -19 -16 -14 -13 -12 -12 -9 -8 -7 -8 -8 -8 -8 -9 -9
-2 -3 -5 -7 -7 -13 -14 -11 -11 -14 -16 -17 -18 -20 -23 -26 -30 -30 -27 -19 -14 -13 -16 -20 -19 -16 -18 -18 -16 -12 -11 -10 -9 -9 -9 -9 -9 -9 -9 -10 -10 -10 -10 -11
-6 -6 -7 -12 -13 -9 -9 -11 -14 -16 -17 -18 -20 -22 -27 -30 -30 -28 -25 -18 -16 -21 -17 -19 -17 -18 -18 -17 -16 -15 -13 -13 -12 -12 -12 -12 -12 -12 -12 -12 -12 -12 -12 -13
-9 -14 -14 -13 -11 -11 -13 -15 -16 -17 -18 -20 -23 -28 -30 -29 -26 -24 -18 -17 -18 -17 -19 -19 -19 -18 -18 -18 -17 -16 -15 -15 -15 -14 -14 -14 -14 -14 -14 -14 -14 -14 -14 -14
-12 -11 -10 -10 -11 -13 -14 -15 -16 -18 -20 -23 -26 -27 -27 -24 -20 -19 -18 -16 -17 -18 -19 -20 -20 -19 -19 -19 -18 -17 -16 -16 -16 -16 -15 -15 -15 -15 -16 -15 -15 -15 -15 -15
-8 -8 -9 -11 -13 -13 -14 -16 -18 -19 -19 -22 -21 -21 -23 -22 -19 -18 -17 -17 -18 -19 -19 -19 -20 -20 -20 -20 -20 -19 -17 -17 -17 -17 -17 -17 -17 -17 -17 -17 -17 -16 -17 -20
-8 -10 -12 -12 -12 -13 -15 -18 -17 -19 -21 -23 -21 -22 -20 -17 -16 -16 -16 -16 -17 -18 -18 -18 -18 -19 -19 -19 -19 -19 -19 -18 -18 -18 -18 -18 -18 -18 -18 -18 -18 -18 -19 -21
-9 -11 -11 -11 -13 -15 -19 -24 -24 -22 -23 -24 -20 -21 -16 -15 -15 -16 -16 -17 -17 -17 -18 -18 -18 -19 -19 -19 -19 -19 -19 -19 -19 -19 -19 -20 -21 -21 -22 -22 -22 -22 -22 -22
-8 -9 -11 -12 -13 -19 -24 -25 -26 -25 -22 -18 -18 -19 -16 -14 -15 -16 -17 -17 -18 -18 -18 -18 -19 -19 -19 -20 -20 -20 -20 -20 -20 -20 -20 -21 -22 -22 -22 -22 -22 -22 -22 -21

GFSNGP_850_dewp_060.txt.gz
Dewpoint
-0 -1 -0 -0 -0 -1 0 0 2 0 2 -1 -3 -3 -4 -2 -2 3 6 6 5 4 5 6 6 6 5 4 4 3 1 -4 -6 -7 -7 -6 -7 -12 -13 -8 -7 -13 -10 -8
1 1 -0 0 -1 -1 -1 -2 -1 -1 -1 -3 -5 -4 -4 -4 -3 2 5 5 4 5 6 6 6 6 6 5 2 -1 -2 -5 -8 -8 -7 -10 -10 -9 -4 -5 -13 -14 -8 -7
4 0 0 3 -0 -1 -1 -2 -2 -1 -3 -4 -3 -4 -4 -5 -5 -0 3 4 5 5 6 6 6 6 4 2 0 -2 -5 -8 -9 -11 -10 -7 -3 -4 -9 -12 -11 -9 -7 -6
4 1 3 2 -2 -2 -2 -3 -4 -1 -1 -2 -1 0 -1 -1 -2 1 4 5 5 5 5 5 4 2 1 -1 -3 -5 -7 -9 -10 -7 -3 -5 -10 -11 -13 -11 -10 -9 -9 -11
3 4 2 0 -4 -7 -5 -3 -3 -0 -2 -0 0 -0 1 1 0 2 3 4 4 3 3 2 1 0 -2 -5 -7 -8 -9 -9 -5 -4 -6 -9 -10 -13 -11 -9 -8 -9 -8 -9
5 2 2 0 -3 -6 -5 -1 -2 -2 -1 -2 -1 3 2 2 1 2 2 2 2 2 2 1 -2 -5 -6 -9 -10 -9 -7 -5 -2 -9 -9 -10 -12 -12 -10 -10 -9 -8 -7 -7
2 1 1 -1 -2 -5 -3 -2 -0 1 -0 1 3 2 1 1 1 1 1 0 -0 -2 -3 -6 -8 -8 -8 -8 -7 -4 -3 -3 -8 -8 -10 -11 -12 -10 -10 -11 -12 -12 -12 -7
3 1 3 -1 -3 -1 -1 1 2 2 2 2 2 0 -1 -0 -1 -1 -2 -4 -5 -5 -6 -7 -7 -7 -6 -5 -2 -1 -7 -10 -14 -15 -15 -13 -11 -10 -11 -12 -12 -11 -11 -12
4 3 0 -0 -0 0 -0 1 2 2 3 2 1 -1 -1 -2 -3 -4 -4 -5 -5 -5 -6 -6 -6 -4 -0 -4 -9 -12 -15 -16 -15 -14 -13 -12 -11 -11 -11 -12 -11 -11 -12 -13
4 2 3 2 1 0 -0 0 2 2 2 2 1 -2 -3 -4 -5 -5 -6 -6 -6 -5 -4 -3 -3 -7 -10 -12 -13 -13 -14 -13 -12 -11 -12 -11 -10 -10 -11 -11 -9 -9 -10 -12
5 4 4 4 3 2 2 1 1 1 1 2 1 -3 -4 -5 -5 -5 -4 -4 -3 -3 -6 -9 -10 -11 -10 -10 -10 -10 -10 -10 -9 -9 -9 -8 -8 -8 -8 -9 -9 -8 -8 -9
3 3 2 4 4 2 2 1 1 1 1 -1 -1 -4 -5 -4 -4 -3 -3 -5 -7 -8 -8 -10 -10 -9 -9 -9 -9 -9 -8 -8 -7 -7 -7 -7 -6 -5 -6 -6 -8 -8 -7 -7
4 3 3 3 2 1 1 0 -0 -0 -2 -3 -4 -5 -4 -3 -6 -5 -4 -4 -5 -8 -9 -10 -10 -11 -10 -9 -9 -8 -8 -9 -9 -9 -8 -7 -6 -5 -5 -6 -6 -6 -7 -7
3 2 1 1 -0 0 0 -1 -2 -3 -3 -4 -5 -6 -6 -3 -4 -6 -9 -9 -9 -10 -11 -15 -17 -19 -21 -22 -20 -18 -15 -13 -13 -15 -16 -14 -12 -9 -7 -6 -6 -6 -5 -6
2 3 1 0 -1 -1 -1 -1 -2 -3 -3 -3 -3 -4 -6 -7 -9 -10 -10 -11 -14 -18 -21 -24 -24 -20 -17 -15 -15 -17 -21 -24 -24 -21 -14 -9 -8 -8 -9 -7 -7 -8 -6 -6
2 1 -1 -1 -1 -1 -2 -3 -3 -4 -6 -7 -8 -9 -10 -11 -13 -14 -17 -19 -21 -23 -23 -19 -15 -14 -15 -18 -23 -27 -27 -24 -22 -20 -17 -12 -12 -12 -12 -10 -8 -7 -7 -8
1 1 0 0 -1 -2 -2 -3 -4 -5 -6 -7 -12 -16 -16 -17 -18 -20 -22 -24 -25 -22 -18 -17 -18 -20 -26 -27 -26 -27 -27 -25 -19 -16 -13 -12 -11 -11 -10 -8 -7 -8 -9 -9
1 1 0 -1 -2 -3 -3 -4 -5 -6 -12 -15 -15 -16 -18 -18 -20 -23 -25 -25 -23 -20 -20 -22 -25 -27 -26 -25 -23 -21 -17 -13 -11 -11 -10 -10 -11 -10 -9 -9 -8 -9 -9 -9
0 0 -1 -2 -3 -3 -4 -6 -12 -15 -14 -15 -17 -18 -19 -20 -24 -26 -27 -27 -25 -24 -24 -27 -26 -25 -24 -23 -21 -19 -17 -15 -15 -13 -13 -13 -13 -12 -12 -11 -11 -11 -11 -10
-0 -1 -2 -4 -4 -4 -9 -14 -14 -15 -17 -18 -18 -20 -22 -25 -28 -29 -28 -26 -24 -24 -25 -25 -24 -23 -22 -21 -19 -18 -18 -17 -16 -16 -15 -15 -14 -14 -14 -14 -14 -14 -13 -13
-2 -3 -4 -3 -8 -12 -14 -13 -15 -17 -18 -19 -21 -23 -25 -28 -28 -28 -26 -24 -24 -23 -23 -23 -22 -21 -21 -20 -20 -20 -20 -18 -17 -17 -16 -16 -15 -15 -15 -15 -15 -15 -15 -15
-5 -5 -6 -11 -11 -10 -12 -15 -16 -17 -18 -20 -23 -26 -28 -28 -27 -26 -24 -23 -21 -21 -22 -22 -21 -21 -20 -20 -21 -21 -21 -20 -18 -17 -17 -17 -16 -16 -17 -16 -16 -16 -16 -16
-6 -9 -12 -11 -12 -14 -15 -16 -17 -18 -19 -21 -24 -27 -28 -27 -25 -24 -22 -20 -19 -19 -19 -20 -21 -21 -21 -21 -21 -21 -21 -20 -19 -18 -18 -18 -18 -17 -18 -18 -18 -17 -17 -17
-12 -12 -11 -12 -14 -14 -15 -15 -16 -17 -19 -22 -24 -25 -24 -23 -22 -20 -18 -17 -17 -18 -18 -19 -20 -21 -21 -21 -21 -20 -20 -20 -19 -19 -19 -19 -19 -19 -20 -20 -20 -20 -20 -19
-9 -9 -11 -13 -13 -14 -14 -15 -16 -18 -20 -21 -20 -21 -21 -20 -19 -17 -16 -16 -17 -18 -19 -19 -19 -20 -20 -20 -20 -20 -20 -20 -20 -20 -20 -20 -20 -21 -22 -22 -22 -22 -22 -22
-9 -11 -12 -12 -13 -13 -15 -18 -21 -22 -21 -21 -20 -20 -20 -17 -15 -15 -15 -16 -16 -18 -19 -19 -19 -20 -20 -20 -20 -20 -20 -20 -20 -20 -22 -22 -22 -22 -22 -22 -22 -22 -22 -22
-9 -9 -10 -9 -9 -13 -21 -23 -22 -23 -23 -22 -20 -18 -18 -15 -15 -16 -16 -17 -17 -18 -20 -20 -19 -20 -20 -20 -20 -20 -20 -21 -22 -23 -23 -23 -22 -22 -22 -22 -22 -22 -21 -21

GFSNGP_850_dewp_063.txt.gz
Dewpoint
-0 -1 -1 -1 -0 -0 1 0 2 0 1 -1 -2 -3 -4 -5 -1 2 5 6 6 7 8 8 8 7 6 6 5 6 4 4 4 3 -1 -5 -6 -7 -12 -12 -8 -6 -6 -13
1 0 -0 1 -0 -1 -0 -1 1 -0 -0 -3 -4 -5 -4 -4 -2 -1 2 5 6 5 6 6 7 7 6 6 6 5 4 3 1 -5 -6 -8 -11 -9 -8 -4 -4 -10 -16 -15
2 0 1 3 1 -0 -1 -2 -2 -0 -2 -4 -3 -3 -1 -3 -3 -1 2 4 5 5 5 5 6 6 6 6 4 4 2 -3 -7 -9 -10 -10 -6 -3 -3 -10 -16 -17 -14 -12
3 1 3 -0 -1 -2 -1 -3 -4 -2 -1 -2 -0 1 1 1 -0 1 2 4 5 5 6 6 6 6 5 5 3 -2 -6 -8 -10 -8 -4 -3 -3 -6 -12 -18 -17 -14 -13 -13
3 4 2 1 -2 -2 -4 -3 -2 -1 -0 1 1 -0 1 1 3 3 4 4 5 6 6 6 6 6 5 -0 -4 -7 -9 -9 -5 -5 -1 -1 -9 -11 -16 -18 -14 -13 -14 -15
2 3 4 2 -2 -6 -5 -1 -3 -2 0 0 -1 -2 1 1 2 3 4 5 5 6 6 5 3 2 -1 -6 -8 -9 -8 -7 -5 -2 -0 -9 -13 -17 -18 -15 -13 -13 -14 -14
2 2 3 -0 -2 -5 -3 -1 -2 -2 -1 -1 -0 -1 1 1 1 2 3 3 3 3 2 1 -2 -4 -6 -8 -9 -7 -4 -1 -0 -7 -10 -16 -18 -17 -15 -13 -13 -14 -14 -13
1 -0 4 -1 -2 -3 -2 -1 -0 0 -1 0 0 0 1 -0 0 0 1 0 -0 -1 -3 -7 -8 -8 -7 -5 -3 -1 -1 -4 -10 -15 -16 -16 -15 -14 -14 -13 -13 -13 -13 -12
3 3 1 -0 -3 -3 -2 -1 2 0 0 -1 0 -0 -0 -1 -2 -2 -3 -5 -5 -5 -7 -7 -7 -5 -2 -1 -2 -9 -14 -15 -14 -14 -13 -12 -11 -11 -10 -10 -10 -10 -10 -10
2 2 2 2 0 -1 -0 -0 1 1 1 0 0 -1 -1 -3 -4 -5 -5 -6 -6 -6 -5 -4 -5 -5 -8 -11 -11 -12 -12 -11 -10 -9 -9 -9 -8 -8 -8 -8 -7 -7 -6 -7
4 4 3 3 2 1 1 1 2 3 2 1 0 -2 -3 -4 -5 -5 -5 -5 -4 -4 -5 -5 -9 -11 -10 -11 -11 -12 -12 -11 -10 -9 -8 -8 -7 -7 -6 -6 -6 -5 -5 -5
4 3 2 3 2 1 1 2 2 2 2 -0 -0 -2 -4 -5 -5 -4 -3 -4 -5 -5 -8 -10 -10 -10 -10 -11 -11 -11 -11 -11 -11 -12 -12 -13 -14 -16 -16 -16 -15 -11 -8 -6
1 3 2 3 2 1 1 1 1 0 0 -1 -2 -4 -4 -3 -3 -4 -5 -6 -7 -8 -9 -9 -10 -13 -15 -17 -20 -20 -19 -18 -19 -23 -29 -30 -29 -23 -16 -21 -10 -12 -13 -9
2 2 2 3 1 1 1 0 -0 -1 -2 -3 -4 -4 -4 -4 -4 -4 -5 -7 -9 -9 -10 -15 -19 -21 -22 -22 -20 -20 -24 -31 -33 -33 -32 -31 -28 -19 -12 -12 -14 -18 -20 -10
2 2 1 1 0 -1 -1 -2 -3 -4 -4 -3 -4 -4 -5 -5 -7 -9 -9 -10 -12 -17 -20 -21 -21 -21 -22 -23 -27 -33 -34 -33 -31 -29 -24 -19 -13 -12 -11 -10 -10 -10 -10 -9
2 1 1 0 -1 -2 -2 -3 -3 -4 -5 -5 -5 -5 -7 -9 -10 -11 -16 -20 -21 -21 -21 -22 -23 -24 -27 -32 -33 -32 -31 -29 -25 -21 -16 -13 -12 -11 -11 -11 -10 -10 -9 -9
0 -0 -0 -1 -1 -2 -2 -2 -3 -3 -4 -5 -8 -9 -10 -13 -17 -19 -20 -21 -22 -23 -23 -24 -26 -30 -32 -31 -30 -30 -29 -26 -22 -20 -16 -13 -12 -13 -14 -13 -14 -12 -11 -11
2 1 -0 -0 -1 -2 -3 -4 -5 -7 -8 -9 -12 -15 -17 -19 -19 -20 -21 -22 -24 -26 -26 -27 -30 -31 -29 -28 -28 -27 -25 -24 -21 -20 -18 -16 -15 -15 -15 -15 -14 -14 -13 -13
1 0 0 -0 -1 -2 -4 -5 -6 -8 -12 -15 -17 -18 -19 -19 -20 -22 -24 -27 -27 -26 -27 -28 -28 -27 -27 -26 -25 -24 -24 -23 -22 -21 -19 -18 -17 -16 -16 -16 -15 -15 -15 -15
0 1 1 -2 -2 -3 -5 -6 -10 -14 -16 -18 -18 -18 -19 -20 -23 -26 -28 -27 -26 -27 -27 -27 -26 -25 -25 -24 -23 -23 -23 -23 -23 -21 -20 -19 -18 -17 -17 -16 -16 -16 -16 -16
1 -1 -2 -3 -3 -5 -7 -12 -15 -16 -18 -19 -19 -19 -21 -23 -26 -28 -27 -25 -25 -26 -26 -26 -25 -25 -24 -23 -22 -22 -22 -22 -22 -21 -20 -19 -19 -18 -18 -17 -17 -17 -17 -17
-2 -3 -4 -4 -4 -7 -13 -16 -17 -17 -18 -19 -20 -22 -25 -26 -26 -26 -26 -25 -25 -25 -24 -24 -23 -23 -23 -23 -22 -22 -21 -21 -20 -20 -20 -19 -19 -19 -19 -19 -19 -19 -19 -19
-4 -2 -3 -6 -12 -14 -14 -16 -17 -18 -18 -20 -22 -24 -26 -26 -26 -25 -25 -23 -23 -22 -21 -21 -22 -21 -21 -22 -21 -21 -21 -20 -20 -20 -20 -20 -20 -20 -20 -20 -21 -22 -22 -22
-3 -4 -8 -11 -11 -9 -15 -17 -17 -17 -18 -20 -21 -23 -25 -25 -25 -23 -21 -19 -18 -18 -18 -19 -19 -19 -20 -21 -21 -21 -21 -20 -20 -20 -20 -20 -21 -21 -22 -23 -23 -23 -23 -23
-9 -9 -7 -7 -9 -15 -15 -15 -15 -16 -18 -19 -21 -22 -23 -23 -22 -19 -17 -16 -16 -16 -17 -18 -19 -19 -19 -20 -21 -21 -21 -21 -20 -20 -21 -22 -23 -23 -23 -23 -23 -22 -22 -22
-7 -7 -7 -8 -12 -13 -11 -10 -15 -17 -18 -19 -21 -22 -21 -20 -17 -16 -15 -16 -16 -17 -18 -19 -19 -19 -19 -20 -20 -21 -21 -21 -21 -21 -23 -24 -24 -23 -23 -23 -22 -22 -22 -22
-7 -8 -9 -9 -9 -9 -11 -16 -19 -19 -21 -21 -20 -19 -18 -17 -15 -15 -16 -16 -17 -18 -19 -20 -20 -20 -20 -20 -21 -21 -21 -21 -21 -23 -26 -25 -25 -25 -25 -24 -22 -22 -22 -21

GFSNGP_850_dewp_066.txt.gz
Dewpoint
-1 -1 -2 -2 -2 -0 0 -0 1 0 0 -2 -3 -3 -4 -4 -5 -4 0 3 5 8 9 9 10 8 7 7 9 8 6 5 3 4 3 3 -3 -5 -7 -8 -12 -9 -4 -6
1 0 0 1 0 -0 -0 -0 -0 -0 -0 -3 -3 -5 -5 -4 -4 -4 -1 3 5 6 8 9 9 8 8 8 7 5 4 4 4 3 1 -4 -7 -8 -9 -6 -3 -2 -12 -17
2 1 1 2 1 0 -0 -1 -0 1 -1 -4 -4 -1 1 0 -1 -1 0 1 4 6 6 7 8 8 7 6 5 5 4 4 2 -2 -6 -9 -9 -7 -3 -2 -2 -14 -19 -16
3 1 1 -1 -1 -2 -0 -1 -3 -3 -2 -3 -2 1 1 2 3 2 3 4 5 5 5 6 6 7 7 5 5 5 3 1 -4 -9 -7 -4 -3 -2 -2 -6 -12 -18 -16 -15
4 3 0 -0 -0 -1 -1 -2 -4 -2 -0 1 1 1 1 1 3 3 4 4 5 5 6 6 6 5 5 4 4 1 -3 -7 -7 -4 -4 -3 -1 -3 -7 -10 -16 -16 -15 -15
2 3 4 1 -0 -5 -6 -1 -3 -1 1 1 -1 -3 -2 1 3 4 4 5 5 6 6 5 5 4 3 2 -3 -8 -8 -6 -6 -3 -2 -2 -4 -9 -15 -17 -16 -16 -15 -15
1 2 3 1 -3 -7 -1 -1 -3 -2 -0 -1 -3 -4 -2 0 1 3 4 5 5 5 5 4 3 1 -3 -8 -9 -7 -5 -3 -4 -1 -4 -9 -14 -16 -15 -15 -15 -15 -14 -13
1 2 5 -2 -2 -3 -2 -3 -3 -2 -1 -1 -1 -1 -0 -0 0 1 2 2 1 1 -1 -5 -6 -5 -7 -7 -4 -3 -4 -3 -4 -11 -13 -12 -11 -11 -10 -10 -9 -9 -8 -8
3 4 1 -2 -3 -4 -4 -4 -1 -3 -2 -2 -2 -1 -1 -1 -1 -1 -1 -2 -3 -4 -7 -7 -5 -4 -3 -4 -3 -3 -4 -12 -12 -13 -12 -11 -10 -10 -10 -9 -8 -8 -7 -7
2 1 1 0 -1 -1 -3 -3 -2 -2 -2 -3 -3 -1 -1 -2 -3 -4 -5 -5 -6 -6 -6 -5 -6 -5 -3 -0 -6 -11 -12 -12 -12 -12 -12 -12 -11 -11 -11 -11 -13 -14 -14 -15
2 3 3 3 1 -1 -1 -0 -0 -1 -2 -2 -1 -1 -1 -3 -5 -6 -6 -5 -5 -5 -5 -4 -2 -3 -9 -11 -12 -12 -13 -13 -15 -18 -21 -23 -25 -28 -32 -35 -30 -21 -14 -9
3 0 0 0 -0 -0 1 1 0 -0 -0 -1 -1 -1 -3 -5 -5 -5 -4 -4 -5 -5 -1 -1 -8 -10 -11 -12 -15 -18 -21 -22 -23 -25 -30 -35 -37 -37 -36 -33 -26 -22 -19 -17
1 0 1 0 1 1 1 2 2 2 1 0 -2 -2 -4 -5 -5 -4 -4 -5 -2 -3 -9 -9 -10 -11 -17 -20 -21 -21 -23 -28 -33 -36 -36 -35 -32 -28 -28 -32 -23 -19 -14 -11
2 2 2 2 1 1 1 2 2 1 -0 -1 -2 -4 -4 -4 -4 -4 -5 -5 -6 -9 -10 -11 -16 -20 -20 -21 -24 -28 -33 -35 -34 -33 -31 -28 -24 -19 -15 -13 -13 -15 -14 -11
2 2 1 2 1 0 0 0 -0 -1 -1 -2 -4 -4 -3 -3 -4 -5 -6 -7 -9 -12 -16 -19 -19 -21 -23 -27 -31 -34 -34 -33 -32 -31 -28 -25 -21 -17 -15 -14 -14 -14 -14 -14
2 1 1 2 0 -0 -1 -1 -1 -2 -2 -3 -3 -3 -4 -4 -6 -8 -10 -12 -18 -19 -20 -20 -22 -25 -29 -32 -33 -33 -32 -30 -29 -28 -27 -25 -22 -19 -19 -17 -16 -16 -15 -15
1 0 -0 -1 -1 -1 -1 -2 -2 -3 -3 -3 -4 -4 -6 -8 -10 -13 -18 -19 -20 -21 -22 -24 -27 -29 -32 -32 -31 -30 -29 -28 -27 -27 -26 -24 -22 -20 -19 -18 -17 -17 -16 -16
2 1 0 -0 -1 -2 -3 -3 -3 -3 -4 -5 -6 -8 -9 -13 -18 -19 -20 -20 -21 -23 -25 -27 -29 -31 -30 -29 -28 -27 -27 -26 -25 -25 -24 -23 -23 -21 -20 -18 -17 -17 -17 -17
1 1 0 -0 -1 -2 -3 -2 -1 -3 -5 -8 -9 -14 -18 -19 -20 -20 -20 -22 -25 -26 -26 -28 -29 -29 -28 -27 -26 -26 -25 -25 -24 -24 -23 -23 -22 -21 -20 -19 -18 -18 -18 -18
0 -0 -0 -1 -2 -2 -0 -2 -5 -8 -8 -14 -18 -19 -19 -20 -21 -22 -24 -25 -26 -26 -27 -27 -28 -27 -26 -26 -25 -25 -25 -24 -23 -23 -22 -22 -21 -20 -20 -19 -19 -19 -19 -19
-0 -1 -1 -0 -0 -1 -4 -7 -6 -9 -18 -19 -18 -19 -19 -20 -22 -25 -26 -26 -26 -26 -26 -26 -26 -25 -25 -25 -25 -24 -23 -23 -22 -22 -21 -21 -21 -20 -20 -20 -20 -20 -21 -21
1 0 -1 -2 -3 -5 -5 -5 -11 -18 -16 -16 -20 -21 -22 -23 -24 -25 -26 -25 -25 -24 -25 -24 -24 -24 -24 -24 -24 -23 -22 -22 -21 -21 -21 -21 -20 -20 -20 -21 -21 -22 -23 -23
-2 -2 -3 -4 -4 -5 -11 -18 -16 -12 -19 -21 -22 -23 -24 -25 -25 -25 -25 -23 -22 -22 -22 -22 -22 -22 -22 -22 -21 -21 -21 -21 -21 -21 -21 -21 -20 -21 -22 -23 -24 -23 -23 -23
-4 -4 -4 -5 -8 -12 -9 -11 -16 -19 -19 -20 -21 -22 -23 -24 -24 -23 -22 -20 -19 -18 -19 -19 -19 -19 -20 -20 -20 -20 -21 -21 -21 -21 -21 -21 -21 -23 -24 -24 -24 -23 -23 -23
-5 -6 -8 -10 -7 -7 -9 -15 -16 -14 -11 -11 -17 -21 -22 -22 -21 -20 -18 -17 -17 -17 -17 -18 -18 -19 -19 -19 -19 -20 -21 -21 -21 -21 -21 -21 -23 -26 -25 -25 -25 -24 -23 -22
-6 -7 -7 -7 -8 -9 -11 -11 -9 -10 -13 -18 -19 -20 -19 -19 -19 -18 -17 -16 -16 -17 -17 -18 -19 -20 -20 -20 -20 -20 -21 -21 -21 -21 -21 -24 -26 -27 -26 -26 -26 -26 -24 -22
-7 -7 -8 -9 -9 -9 -10 -10 -11 -15 -18 -20 -21 -19 -18 -18 -18 -16 -16 -16 -17 -17 -18 -19 -20 -20 -20 -20 -20 -21 -21 -21 -21 -23 -24 -26 -27 -27 -26 -26 -26 -26 -25 -22

GFSNGP_850_dewp_069.txt.gz
Dewpoint
-1 -3 -1 1 1 2 2 2 4 2 0 -1 -2 -2 -3 -4 -4 -5 -5 -3 2 5 6 7 8 8 7 6 6 7 9 8 6 3 2 4 3 0 -2 -2 -7 -10 -6 -3
1 1 -0 1 -1 0 1 -0 -0 -0 0 -2 -3 -3 -4 -4 -3 -4 -4 -4 1 5 7 9 9 9 8 9 9 8 7 5 3 2 5 3 -3 -1 -4 -7 -3 -3 -2 -5
3 1 1 4 2 1 0 0 0 2 -0 -2 -3 -3 -1 0 0 0 0 1 3 5 6 8 9 9 9 8 8 7 6 3 3 4 -1 -4 -3 -4 -4 -3 -1 -4 -9 -14
5 2 6 1 -1 -1 1 0 -1 -1 -2 -3 -3 1 1 2 3 4 4 4 4 5 6 7 8 8 8 7 6 4 3 4 2 -4 -6 -4 -3 -2 -2 -3 -5 -8 -11 -16
6 4 2 -1 -0 1 1 -3 -2 -1 -3 -1 1 1 1 2 3 4 4 5 5 5 5 6 6 7 6 5 4 3 3 -0 -5 -5 -3 -3 -1 -2 -3 -7 -11 -16 -16 -15
3 5 5 2 -2 -3 -4 1 -3 -3 -0 2 2 3 -1 1 3 4 5 5 5 5 5 5 5 5 5 4 3 1 -4 -5 -5 -4 -2 -2 -2 -7 -12 -16 -16 -15 -15 -13
4 6 4 0 -3 -6 4 1 -5 -3 0 2 -1 -2 -2 1 3 4 4 5 5 5 5 4 4 4 3 -1 -4 -5 -5 -5 -3 -3 -2 -7 -12 -15 -16 -15 -14 -13 -12 -11
4 6 5 -1 -4 0 0 -5 -5 -3 -1 0 -3 -3 -0 0 2 3 4 4 4 4 3 1 0 0 -4 -6 -4 -3 -4 -4 -2 -4 -10 -14 -15 -14 -13 -12 -11 -11 -12 -15
4 5 2 -2 -2 -5 -5 -5 -4 -4 -1 -1 -3 -2 -1 -0 0 1 1 1 0 -1 -5 -7 -6 -6 -6 -4 -3 -3 -1 -2 -12 -13 -14 -13 -13 -13 -15 -20 -27 -33 -34 -35
3 2 2 0 -2 -3 -4 -4 -4 -3 -2 -1 -3 -2 -1 -1 -1 -1 -2 -3 -4 -5 -5 -4 -4 -4 -4 -2 -1 -6 -13 -13 -14 -14 -15 -19 -24 -28 -34 -35 -32 -26 -17 -15
4 2 3 1 1 -1 -1 -3 -2 -2 -2 -2 -3 -2 -1 -2 -3 -4 -4 -5 -5 -5 -6 -6 -4 -2 -2 -7 -11 -12 -14 -16 -20 -23 -25 -30 -35 -35 -34 -29 -25 -21 -17 -15
5 1 0 -1 -1 -0 -1 -2 -1 -2 -1 -2 -3 -2 -2 -4 -5 -5 -5 -5 -5 -5 -4 -2 -2 -8 -11 -12 -14 -19 -21 -23 -26 -31 -34 -35 -35 -34 -32 -29 -25 -21 -17 -15
1 -0 -1 -1 -2 -0 0 0 0 -1 -2 -2 -2 -2 -3 -5 -5 -4 -5 -5 -5 -2 -2 -6 -10 -11 -14 -19 -21 -23 -26 -30 -33 -35 -35 -35 -34 -33 -30 -27 -27 -25 -22 -19
2 2 1 1 1 1 1 2 1 -0 -1 -1 -1 -3 -4 -5 -4 -5 -5 -4 -3 -6 -9 -10 -12 -18 -20 -22 -25 -29 -32 -34 -34 -34 -34 -33 -31 -29 -28 -26 -25 -24 -23 -22
2 2 1 1 1 1 2 2 1 -0 -1 -2 -3 -4 -5 -4 -4 -5 -4 -6 -8 -7 -11 -15 -18 -20 -23 -26 -30 -32 -33 -33 -32 -31 -30 -29 -28 -27 -27 -26 -25 -24 -23 -23
2 2 1 1 1 1 1 1 1 -1 -2 -2 -3 -4 -4 -4 -4 -6 -7 -4 -7 -13 -18 -19 -21 -24 -27 -30 -32 -32 -31 -30 -29 -29 -28 -27 -26 -26 -25 -24 -23 -22 -22 -21
2 0 0 0 0 -0 -0 -1 -0 -1 -2 -2 -3 -4 -4 -3 -7 -5 -4 -12 -17 -19 -20 -22 -25 -27 -30 -31 -30 -30 -29 -28 -28 -27 -26 -26 -25 -24 -24 -23 -21 -21 -20 -20
1 1 1 1 0 0 -1 -1 -1 -2 -2 -3 -2 -2 -3 -6 -4 -6 -16 -18 -19 -21 -23 -25 -27 -29 -30 -29 -29 -28 -27 -27 -26 -26 -25 -24 -24 -23 -22 -21 -21 -20 -20 -20
1 1 -0 -0 -1 -1 -1 -1 -2 -3 -2 -2 -3 -5 -4 -5 -15 -18 -19 -19 -21 -23 -24 -26 -28 -29 -29 -28 -27 -26 -26 -26 -25 -24 -24 -23 -22 -22 -21 -21 -20 -20 -20 -20
0 -0 -1 -1 -2 -2 -3 -2 -2 -2 -3 -4 -4 -5 -16 -18 -15 -16 -20 -22 -23 -25 -26 -26 -27 -27 -27 -27 -26 -26 -25 -24 -24 -23 -23 -22 -22 -21 -21 -21 -20 -20 -21 -21
-1 -1 -2 -3 -3 -2 -2 -2 -3 -4 -4 -7 -17 -14 -8 -11 -20 -21 -23 -24 -24 -25 -25 -26 -26 -26 -26 -25 -25 -24 -24 -23 -23 -22 -22 -22 -21 -21 -21 -21 -21 -22 -23 -24
-2 -2 -2 -2 -2 -4 -4 -4 -5 -8 -16 -13 -8 -13 -19 -20 -22 -23 -23 -24 -24 -23 -24 -24 -24 -23 -23 -23 -23 -22 -22 -22 -22 -21 -21 -21 -21 -21 -21 -22 -23 -24 -24 -24
-3 -3 -4 -4 -5 -5 -6 -9 -17 -14 -7 -13 -20 -21 -22 -22 -23 -23 -23 -22 -22 -21 -20 -20 -20 -20 -20 -21 -21 -21 -21 -21 -21 -21 -21 -21 -21 -21 -22 -24 -24 -25 -25 -25
-5 -5 -5 -6 -6 -10 -14 -11 -8 -15 -20 -21 -15 -15 -13 -16 -22 -22 -21 -20 -19 -18 -18 -18 -18 -19 -19 -20 -21 -21 -20 -21 -21 -21 -21 -21 -21 -21 -23 -25 -26 -26 -26 -26
-6 -6 -6 -7 -7 -7 -8 -9 -10 -13 -10 -10 -10 -12 -16 -20 -21 -19 -18 -17 -17 -17 -17 -17 -18 -19 -20 -21 -21 -20 -20 -20 -21 -21 -21 -21 -22 -24 -26 -26 -26 -26 -26 -26
-6 -7 -7 -8 -8 -9 -10 -10 -10 -10 -11 -11 -13 -16 -17 -15 -15 -18 -17 -16 -16 -17 -17 -18 -19 -20 -21 -21 -21 -21 -21 -21 -21 -22 -22 -23 -25 -26 -26 -26 -26 -26 -26 -26
-8 -8 -9 -9 -10 -10 -10 -11 -11 -12 -14 -15 -13 -13 -14 -15 -16 -17 -16 -16 -17 -17 -18 -19 -20 -21 -21 -21 -21 -21 -21 -22 -22 -24 -25 -25 -26 -26 -26 -26 -26 -26 -26 -26

GFSNGP_850_dewp_072.txt.gz
Dewpoint
-4 -6 -6 -5 -5 -3 -1 -2 -1 -1 -3 -5 -4 -4 -4 -4 -2 -3 -3 -2 2 5 8 10 10 11 10 8 7 9 9 9 8 8 8 6 4 4 3 3 -0 2 -4 -10
-0 -3 -3 -3 -3 -4 -2 -2 -2 -1 -3 -5 -5 -4 -3 -3 -3 -2 -2 -1 0 5 8 9 10 9 9 9 9 8 8 8 8 7 5 4 5 4 1 0 1 -6 -5 -1
1 0 0 4 1 -2 -2 -1 -1 -1 -4 -5 -4 -3 -3 -2 -0 1 3 4 4 6 8 9 9 8 8 8 8 8 8 7 5 3 4 4 1 -1 -2 -2 -3 -2 -2 -7
3 5 9 -1 -2 -3 -2 -2 -2 -2 -3 -4 -5 -2 -0 0 2 5 5 6 6 7 8 8 8 7 7 6 5 7 5 4 2 3 3 -3 -4 -3 -3 -1 -2 -3 -4 -5
10 4 -1 -1 -2 -1 -0 -1 -4 -3 -4 -6 -3 -1 0 1 2 4 5 5 6 6 7 7 6 6 6 6 6 5 3 3 3 -3 -4 -3 -3 0 -2 -3 -4 -6 -7 -7
5 10 10 -0 -3 -3 -3 2 -4 -5 -3 -3 -0 2 -2 1 2 4 3 4 4 5 5 5 5 4 5 5 4 3 3 -2 -4 -3 -4 -1 -2 -3 -5 -9 -11 -7 -7 -7
6 10 3 -0 -2 -3 2 2 -3 -4 -4 -1 1 -0 1 1 2 2 2 3 3 3 3 3 2 1 -0 1 2 -1 -3 -4 -4 -3 -3 -3 -6 -12 -14 -8 -9 -11 -14 -15
6 11 9 -1 -3 0 -1 0 -2 -2 -1 0 1 -2 1 1 1 1 1 2 1 1 1 -0 -1 0 -1 -2 -3 -4 -4 -4 -4 -2 -3 -11 -14 -13 -12 -11 -15 -20 -29 -34
4 3 2 -2 -2 -2 -0 -2 -1 -1 0 2 0 -1 -0 -0 0 0 -0 -0 -1 -1 -1 -2 -2 -2 -3 -4 -4 -4 -5 -3 -3 -11 -14 -14 -14 -16 -21 -25 -27 -26 -20 -11
4 0 1 1 -1 0 -1 -1 -0 0 1 1 -0 -1 -1 -1 -1 -1 -1 -2 -2 -2 -3 -4 -4 -4 -4 -4 -4 -2 -5 -12 -13 -14 -15 -20 -24 -27 -31 -31 -28 -22 -16 -11
2 1 2 2 2 1 0 -2 -2 -2 1 0 -1 -1 -2 -2 -2 -2 -3 -3 -3 -3 -4 -4 -5 -5 -4 -2 -4 -11 -13 -15 -17 -22 -24 -28 -32 -34 -32 -27 -32 -31 -18 -13
5 1 2 -1 1 0 -0 -1 -1 -2 -1 -0 -1 -2 -3 -3 -2 -3 -4 -4 -4 -4 -4 -4 -4 -3 -4 -10 -12 -14 -19 -22 -24 -28 -31 -34 -30 -19 -29 -29 -31 -29 -26 -25
2 0 1 -0 -1 -1 2 3 2 -0 -1 -1 -2 -3 -3 -3 -3 -4 -4 -4 -5 -5 -5 -3 -4 -9 -12 -14 -19 -21 -24 -26 -30 -33 -34 -32 -27 -17 -12 -11 -22 -26 -27 -26
1 1 2 1 2 -0 0 0 1 -0 -1 -2 -2 -3 -3 -3 -4 -4 -4 -4 -5 -3 -3 -7 -10 -12 -18 -21 -23 -26 -29 -32 -33 -33 -31 -28 -26 -24 -17 -13 -12 -12 -13 -24
2 1 2 1 1 1 1 0 -0 -1 -2 -2 -2 -2 -3 -4 -4 -4 -5 -5 -4 -7 -9 -11 -14 -19 -22 -24 -27 -30 -31 -32 -32 -32 -31 -30 -28 -26 -15 -15 -14 -13 -13 -14
2 2 1 1 1 1 1 -0 -1 -1 -2 -2 -2 -3 -4 -4 -4 -6 -6 -7 -5 -4 -6 -16 -20 -23 -26 -28 -30 -30 -31 -31 -30 -29 -29 -27 -26 -24 -15 -16 -15 -14 -14 -15
2 1 1 1 1 0 0 -0 -1 -2 -2 -3 -3 -4 -4 -4 -5 -5 -4 -4 -5 -11 -18 -21 -23 -26 -28 -29 -29 -29 -29 -29 -28 -27 -27 -26 -26 -23 -16 -16 -16 -15 -15 -16
2 1 1 1 0 -0 -1 -1 -1 -2 -3 -4 -4 -4 -4 -4 -4 -4 -4 -7 -17 -12 -18 -22 -25 -27 -29 -29 -29 -29 -28 -27 -27 -26 -26 -25 -25 -23 -19 -17 -16 -17 -17 -17
1 1 0 -0 -0 -1 -2 -2 -2 -2 -3 -3 -3 -3 -3 -4 -4 -6 -15 -11 -8 -13 -19 -24 -26 -27 -27 -28 -28 -27 -27 -26 -26 -25 -24 -24 -23 -22 -21 -19 -18 -18 -18 -18
-1 -1 -1 -1 -1 -2 -2 -2 -3 -3 -3 -3 -4 -4 -5 -8 -13 -8 -7 -8 -16 -22 -24 -25 -25 -26 -26 -27 -27 -26 -26 -25 -25 -24 -23 -23 -22 -22 -20 -19 -20 -19 -19 -19
-2 -2 -2 -3 -3 -3 -3 -4 -3 -4 -4 -4 -7 -9 -8 -7 -7 -9 -16 -22 -22 -23 -23 -24 -24 -24 -25 -25 -25 -25 -24 -24 -23 -23 -22 -21 -21 -19 -19 -20 -20 -20 -20 -21
-3 -4 -4 -4 -4 -5 -5 -4 -5 -6 -8 -8 -7 -6 -7 -8 -13 -19 -21 -22 -22 -22 -22 -22 -22 -21 -22 -23 -23 -22 -21 -21 -21 -21 -19 -20 -20 -20 -21 -21 -20 -21 -24 -24
-5 -5 -5 -5 -5 -6 -6 -6 -7 -7 -7 -7 -8 -11 -17 -19 -19 -16 -17 -19 -22 -21 -20 -19 -19 -20 -20 -21 -21 -21 -20 -20 -19 -20 -20 -21 -21 -21 -22 -22 -22 -24 -25 -26
-6 -6 -6 -6 -7 -8 -8 -8 -9 -10 -12 -17 -18 -14 -12 -12 -15 -19 -20 -19 -18 -17 -17 -18 -18 -18 -19 -20 -21 -20 -19 -20 -21 -21 -21 -21 -22 -22 -23 -23 -23 -25 -26 -26
-7 -7 -7 -8 -8 -10 -10 -11 -12 -11 -10 -10 -10 -11 -12 -12 -13 -13 -13 -14 -15 -16 -16 -17 -18 -19 -20 -20 -19 -20 -21 -21 -21 -21 -22 -22 -23 -23 -23 -24 -24 -25 -26 -26
-8 -9 -9 -9 -10 -10 -10 -10 -10 -11 -11 -11 -12 -12 -13 -13 -14 -14 -15 -15 -16 -16 -17 -18 -19 -20 -20 -20 -21 -21 -22 -22 -22 -23 -23 -23 -23 -24 -24 -24 -25 -25 -25 -25
-9 -10 -10 -10 -10 -11 -11 -11 -12 -12 -13 -13 -13 -13 -14 -15 -16 -16 -16 -16 -17 -17 -18 -19 -19 -20 -21 -21 -22 -22 -23 -23 -23 -23 -24 -25 -25 -24 -25 -25 -25 -25 -25 -25

GFSNGP_850_dewp_075.txt.gz
Dewpoint
-4 -5 -6 -6 -5 -5 -3 -2 1 -2 -4 -7 -8 -7 -7 -6 -5 -4 -5 -5 -2 1 5 7 9 9 9 11 11 10 9 9 9 9 9 8 7 6 5 3 3 3 3 0
-2 -4 -5 -5 -7 -6 -6 -6 -5 -6 -5 -7 -7 -8 -7 -6 -5 -4 -3 -3 -3 -0 3 8 10 10 10 10 9 8 8 8 8 8 7 7 4 3 3 4 3 1 2 -3
2 -3 -3 2 -3 -5 -5 -6 -5 -2 -4 -6 -6 -7 -6 -7 -6 -2 -1 2 2 2 5 9 10 10 9 8 7 7 7 7 7 7 6 5 5 4 3 0 0 -2 -1 -0
6 7 7 -1 -4 -5 -4 -6 -5 -5 -5 -6 -6 -7 -6 -2 -1 0 3 4 5 6 8 9 9 8 8 7 6 6 7 7 6 5 4 4 2 -1 -1 -2 0 1 -1 -2
9 6 1 -3 -2 -2 -3 -3 -6 -5 -5 -6 -6 -3 -3 -1 0 3 5 6 6 7 8 8 8 7 6 6 6 6 5 4 3 3 3 -0 -3 -1 0 1 -1 -2 -4 -6
7 7 7 0 -3 -4 -5 2 -5 -5 -5 -5 -6 -0 -5 1 2 4 4 5 6 7 7 7 7 6 5 4 4 2 1 -0 1 1 -1 -1 -1 0 -2 -3 -5 -7 -7 -6
8 9 2 -4 -4 -4 3 2 -5 -5 -5 -5 -4 -2 2 2 3 3 3 4 5 5 5 5 4 4 3 2 1 -0 -1 -2 -1 -1 -2 -2 -2 -4 -5 -6 -6 -5 -10 -14
8 11 9 -1 -1 0 -0 -3 -2 -2 -4 -3 -1 2 2 2 2 2 2 3 3 4 4 3 3 2 1 0 -1 -1 -1 -2 -3 -3 -4 -4 -5 -6 -6 -6 -5 -7 -17 -24
4 4 1 -1 -2 -2 -3 -1 -1 -1 -2 -1 2 2 1 1 1 2 2 2 2 2 1 1 0 -0 -0 -1 -1 -2 -3 -3 -4 -4 -5 -8 -8 -8 -10 -11 -10 -8 -12 -11
2 -1 0 -0 1 -0 -0 -0 -1 0 -0 1 2 1 1 1 1 1 1 1 0 0 0 -0 -1 -1 -2 -2 -3 -3 -4 -4 -5 -8 -10 -13 -14 -15 -12 -12 -12 -15 -10 -9
-0 -2 -2 1 1 2 1 1 -0 0 -0 1 1 0 -0 0 0 0 -0 -0 -1 -1 -1 -2 -3 -3 -3 -3 -4 -5 -6 -8 -10 -14 -15 -19 -17 -19 -20 -27 -31 -32 -21 -25
4 -1 0 -1 0 1 2 2 2 2 1 1 0 -0 -1 -1 -1 -1 -1 -1 -1 -2 -3 -3 -4 -5 -5 -6 -7 -9 -11 -12 -15 -18 -21 -18 -14 -18 -24 -24 -28 -33 -34 -31
-1 0 3 3 0 0 3 3 3 2 1 1 0 -1 -1 -2 -1 -2 -2 -2 -2 -3 -4 -6 -8 -10 -10 -11 -11 -11 -13 -21 -26 -27 -22 -17 -18 -12 -11 -11 -14 -16 -17 -18
-0 3 2 2 2 1 1 2 2 2 1 0 -0 -1 -2 -2 -2 -3 -3 -3 -4 -5 -7 -10 -11 -11 -13 -14 -20 -23 -25 -28 -24 -22 -19 -17 -11 -14 -13 -11 -10 -10 -11 -11
3 3 3 3 2 2 1 1 1 0 -0 -1 -1 -2 -2 -2 -3 -3 -4 -5 -6 -9 -10 -10 -8 -7 -11 -20 -24 -25 -27 -28 -31 -30 -31 -31 -28 -21 -16 -12 -11 -11 -12 -12
2 2 2 2 1 1 1 1 0 -1 -1 -2 -2 -2 -3 -3 -3 -5 -6 -8 -8 -8 -5 -4 -6 -14 -22 -20 -24 -18 -27 -31 -31 -29 -26 -23 -20 -17 -13 -12 -12 -12 -12 -13
3 2 2 2 2 1 1 1 0 -1 -1 -1 -2 -3 -3 -5 -6 -6 -7 -6 -5 -5 -7 -11 -8 -9 -10 -8 -25 -26 -24 -28 -29 -28 -26 -24 -23 -16 -13 -13 -13 -13 -13 -14
3 2 2 2 2 1 1 0 -1 -1 -2 -2 -3 -3 -4 -5 -5 -6 -6 -6 -7 -8 -7 -7 -7 -9 -24 -28 -28 -29 -29 -28 -28 -27 -26 -18 -15 -21 -14 -14 -14 -14 -15 -15
1 1 1 0 0 -1 -2 -2 -2 -2 -3 -3 -4 -4 -5 -6 -6 -7 -7 -7 -7 -7 -8 -9 -14 -24 -27 -27 -28 -28 -28 -27 -25 -19 -18 -17 -16 -15 -15 -15 -16 -16 -16 -17
-1 -1 -1 -2 -2 -2 -3 -4 -4 -4 -4 -4 -5 -6 -6 -7 -7 -7 -8 -8 -8 -9 -13 -18 -21 -25 -22 -26 -27 -26 -26 -24 -19 -16 -16 -19 -16 -16 -17 -17 -17 -17 -18 -18
-3 -3 -3 -3 -4 -5 -6 -6 -5 -6 -6 -5 -5 -6 -7 -8 -8 -8 -8 -9 -13 -13 -13 -22 -22 -23 -24 -25 -24 -22 -17 -16 -16 -16 -17 -17 -17 -17 -17 -18 -18 -18 -19 -19
-5 -5 -6 -6 -6 -6 -6 -6 -6 -6 -6 -6 -6 -7 -8 -9 -10 -11 -11 -10 -12 -20 -21 -20 -21 -21 -22 -22 -16 -16 -17 -17 -17 -18 -18 -18 -18 -18 -19 -19 -19 -20 -20 -21
-7 -7 -6 -6 -7 -7 -6 -6 -6 -7 -7 -8 -8 -9 -10 -11 -11 -10 -12 -15 -18 -19 -14 -14 -15 -16 -18 -18 -17 -17 -18 -18 -18 -18 -19 -19 -19 -20 -20 -20 -21 -21 -21 -22
-7 -7 -7 -7 -7 -7 -8 -8 -8 -8 -10 -12 -12 -11 -11 -11 -12 -12 -14 -15 -14 -14 -14 -15 -16 -18 -19 -17 -18 -18 -19 -19 -19 -19 -20 -20 -20 -20 -21 -21 -22 -22 -22 -23
-8 -8 -8 -8 -9 -9 -10 -10 -10 -10 -10 -10 -11 -11 -11 -12 -12 -13 -14 -14 -14 -15 -16 -16 -17 -19 -18 -18 -19 -19 -19 -20 -20 -21 -21 -21 -21 -21 -22 -22 -22 -23 -24 -24
-8 -9 -9 -9 -9 -9 -10 -10 -10 -11 -11 -12 -13 -13 -13 -14 -14 -15 -15 -15 -16 -17 -18 -18 -19 -19 -19 -19 -20 -20 -20 -21 -21 -21 -22 -22 -23 -23 -23 -23 -23 -24 -24 -25
-10 -10 -10 -11 -11 -11 -11 -11 -12 -13 -13 -13 -14 -14 -14 -15 -15 -16 -16 -17 -17 -18 -18 -19 -19 -20 -21 -21 -21 -21 -22 -22 -22 -23 -24 -24 -24 -24 -24 -25 -25 -25 -24 -24

GFSNGP_850_dewp_081.txt.gz
Dewpoint
1 -2 -1 -0 -1 -2 -1 1 3 3 2 0 -3 -4 -5 -4 -5 -3 -3 -4 -4 1 1 2 3 7 8 8 9 10 10 9 10 10 9 9 7 8 10 9 8 9 8 6
2 1 -1 -1 -1 -2 -2 -2 -3 -2 -1 -4 -5 -6 -5 -6 -3 -3 -3 -4 -5 -3 2 3 5 5 7 8 9 9 8 9 8 9 9 10 10 9 9 9 8 7 5 4
5 2 2 3 -0 -2 -1 -2 -2 -1 -3 -5 -5 -6 -6 -6 -6 -5 -6 -3 -3 -3 -2 5 6 6 8 9 9 9 9 9 10 10 10 9 9 9 8 8 7 4 4 4
7 4 7 1 -3 -3 -2 -2 -4 -4 -5 -5 -6 -7 -5 -5 -4 -2 -2 -1 1 1 2 7 8 8 8 9 9 10 10 10 9 9 8 8 8 7 7 6 4 4 3 1
8 6 5 3 -2 -2 -2 -1 -4 -4 -4 -5 -6 -5 -1 -3 -4 -2 -1 1 2 3 5 9 9 9 10 10 10 10 9 8 8 7 8 8 7 7 5 4 4 1 -0 -1
6 8 8 3 1 -3 -2 2 -2 -3 -3 -2 -3 -0 -0 -2 -4 -1 2 4 4 5 7 9 9 10 10 10 9 8 8 7 7 7 6 6 5 4 4 1 -0 1 1 0
7 7 7 2 -0 -2 2 2 -2 -2 -2 -4 0 1 -2 -0 -1 -0 2 5 6 7 7 8 8 8 8 8 8 7 6 6 6 6 5 5 4 1 -1 1 1 0 -1 -3
6 7 8 1 -1 1 1 -2 -3 -2 -1 -1 -2 -1 -1 -1 -2 -0 3 6 7 7 8 7 6 7 7 7 6 6 6 5 5 4 3 1 -0 0 0 -0 -1 -3 -4 -6
5 5 4 3 3 3 1 3 1 -0 1 -1 -0 0 -0 -1 0 2 3 6 7 7 7 6 6 5 6 5 4 3 2 1 -0 -0 -0 0 0 -1 -2 -4 -5 -6 -6 -7
4 2 -0 1 2 2 1 0 1 1 1 -0 -1 -0 -0 1 2 3 3 5 5 6 5 5 4 3 3 2 1 0 -1 -1 -1 -1 -2 -3 -3 -4 -5 -6 -7 -9 -11 -12
4 3 1 -2 -2 0 1 -1 1 0 -0 0 1 1 1 2 2 2 3 4 4 4 3 2 2 1 -0 -0 -1 -1 -1 -2 -3 -4 -5 -6 -7 -7 -7 -10 -11 -11 -13 -16
4 1 1 -0 -1 -2 -1 -1 -1 1 -0 0 1 2 2 2 2 2 2 2 2 1 0 -0 -0 -1 -1 -1 -1 -2 -3 -5 -7 -9 -11 -10 -10 -14 -15 -18 -20 -21 -20 -22
-2 -2 -1 2 2 1 3 3 3 2 1 2 1 2 1 1 1 1 1 1 1 -0 -1 -2 -3 -3 -4 -4 -4 -5 -6 -8 -8 -7 -7 -10 -12 -12 -16 -12 -7 -8 -14 -13
-2 -1 3 3 3 2 1 1 2 3 2 2 1 1 1 1 1 0 -0 -1 -2 -3 -4 -4 -4 -5 -8 -8 -7 -8 -9 -8 -7 -6 -7 -10 -14 -9 -7 -11 -11 -13 -12 -13
-0 2 3 2 2 1 1 1 1 1 0 0 0 -0 0 -0 -1 -2 -4 -4 -4 -5 -6 -5 -4 -4 -6 -7 -7 -6 -5 -6 -7 -8 -7 -7 -9 -15 -22 -13 -11 -12 -13 -13
-3 3 2 2 1 1 1 0 -0 -1 -1 -1 -1 -1 -2 -2 -4 -5 -5 -6 -4 -5 -4 -3 -5 -6 -6 -6 -6 -6 -7 -7 -8 -8 -9 -11 -10 -9 -11 -15 -16 -13 -13 -12
1 3 2 2 1 1 0 -0 -1 -1 -1 -2 -2 -3 -3 -4 -5 -6 -6 -4 -3 -4 -5 -6 -6 -6 -7 -7 -7 -8 -8 -9 -10 -10 -10 -11 -12 -14 -17 -16 -16 -14 -13 -13
3 3 2 2 1 1 -0 -1 -1 -2 -2 -3 -4 -4 -5 -5 -5 -4 -4 -5 -5 -6 -7 -7 -8 -8 -8 -9 -9 -10 -11 -11 -11 -14 -18 -21 -20 -19 -18 -16 -15 -15 -15 -15
2 2 2 1 1 0 -1 -1 -2 -2 -4 -4 -4 -4 -4 -4 -5 -6 -7 -7 -7 -7 -9 -8 -8 -9 -10 -10 -11 -13 -18 -22 -23 -21 -20 -19 -18 -18 -17 -15 -16 -17 -16 -17
0 0 0 -1 -1 -1 -2 -3 -3 -3 -3 -2 -3 -4 -5 -7 -7 -7 -7 -8 -8 -9 -10 -10 -10 -11 -15 -20 -22 -19 -17 -16 -16 -16 -17 -16 -16 -16 -17 -17 -17 -17 -18 -18
-2 -2 -3 -3 -4 -4 -4 -4 -4 -5 -5 -5 -5 -7 -8 -8 -8 -8 -8 -9 -11 -11 -12 -14 -17 -16 -15 -15 -15 -15 -16 -16 -17 -17 -17 -17 -17 -17 -18 -18 -18 -19 -19 -19
-5 -5 -5 -6 -6 -7 -7 -6 -6 -7 -7 -7 -7 -8 -8 -9 -9 -10 -12 -13 -14 -14 -13 -14 -14 -15 -16 -17 -17 -17 -17 -17 -18 -18 -18 -18 -18 -19 -19 -19 -20 -20 -20 -20
-7 -8 -8 -8 -8 -8 -8 -8 -8 -8 -9 -9 -9 -9 -10 -11 -11 -12 -12 -13 -13 -13 -14 -15 -16 -17 -19 -19 -18 -18 -18 -19 -19 -19 -19 -19 -20 -20 -20 -20 -21 -21 -21 -22
-8 -8 -8 -8 -8 -8 -9 -10 -9 -10 -10 -10 -11 -11 -11 -11 -13 -13 -13 -14 -14 -15 -16 -17 -19 -20 -20 -19 -19 -19 -19 -19 -20 -20 -20 -21 -21 -21 -21 -22 -22 -22 -22 -23
-9 -9 -9 -8 -9 -10 -10 -10 -10 -11 -11 -11 -11 -12 -12 -13 -14 -14 -15 -16 -16 -17 -17 -18 -19 -20 -21 -22 -22 -22 -21 -21 -21 -21 -22 -22 -22 -23 -23 -23 -23 -23 -24 -24
-9 -9 -10 -10 -10 -10 -11 -11 -12 -12 -13 -13 -14 -14 -15 -15 -16 -16 -17 -18 -18 -18 -19 -19 -20 -20 -21 -21 -22 -22 -22 -23 -23 -23 -23 -23 -24 -24 -24 -24 -24 -24 -24 -24
-10 -10 -10 -10 -10 -11 -11 -12 -13 -13 -14 -16 -16 -15 -15 -16 -16 -17 -18 -19 -19 -20 -22 -22 -22 -22 -22 -23 -23 -23 -24 -24 -24 -24 -24 -24 -24 -25 -25 -25 -24 -24 -24 -24